Timeline UpdatesTrip UpdatesNews PostsPvt PostsTravel TipsAdmin PostsConv PostsFollowed PostsChat RequestsBlog PostsPNR Posts

Disclaimer
Search
 
 
Fri Jul 25, 2014 14:30:25 ISTHomeTrainsΣChainsAtlasPNRForumGalleryNewsFAQTripsMembersLoginFeedback
No Recent News for this Train
Other Trains in the News **new
Latest...
.
Thu Jul 24, 2014 (11:10PM)
⇐ Return Journey: Train# 19019

19020/Dehradun - Mumbai Bandra Terminus Express

Apr 15 2014 (1:35PM)
Change Departure Station:
Change Arrival Station:
Post a Train Travel TipPost a Train Travel Tip **new
Post a Comment/Question/Picture/VideoPost a Comment/Question/Picture/Video
Pantry/Catering
✕ NO Pantry Car
✓ Catering Avbl
Loco/Rake Reversals
SRE/Saharanpur Junction (6); LRJ/Laksar Junction (4);
RSA - Rake Sharing
Rake/Coach Composition
LOCO-SLR-HCPV-GEN-GEN-AB1-S1-S2-S3-S4-S5-S6-S7-S8-S9-SLR
Loco
GZB WAP-7 NZM-BDTS. ddn to nzm tkd wdp 3a. By Er...
Read more...
Ankit Shotra Bhagat Entry# 595554
News    PNR    Forum    Time-Table    Availability    Fare Chart    Map    Arr/Dep History    Trips    Gallery    ΣChains    X/O    Timeline    
Travel Time: 21h 40m    52 halts    Distance: 922 km    Avg Speed: 42 km/hr
Type: Mail/Express
Zone: WR/Western
Departs @ 06:40
Platform# ???
SMTWTFS
Keshorai Patan/KPTN 
Arrives @ 04:20 +1 night
Platform# 1
SMTWTFS
Mumbai Bandra Terminus/BDTS 

52 halts. 152 intermediate Stations between Keshorai Patan and Mumbai Bandra Terminus

Show ALL intermediate Stations  Show Old Time-Table

#CodeStation NameX/OArrivesAvgDepartsAvgHaltPFDay#KmSpeedElevZoneAddress
1DDNDehradun (4)  -10:35-21-759.741648mNRDehradun, Uttarakhand
2DWODoiwala  11:04-11:06-2m--1-739.939484mNRDehradun, Uttarakhand
3RWLRaiwala Junction (2)X  11:38-11:40-2m21-719.220361mNRRishikesh, Uttarakhand
4MOTCMotichur (2)X  12:00-12:02-2m11-712.621312mNRHaridwar, Uttarakhand
5HWHaridwar Junction (9)X  12:15-12:45-30m31-708.130294mNRHaridwar, Uttarakhand
6JWPJwalapurX  12:53-12:55-2m--1-704.121292mNRHaridwar, Uttarakhand
7LRJLaksar Junction (4)X14:00-14:25-25m--1-681.159238mNRLaksar, Uttarakhand
8RKRoorkee (3)X  14:43-14:45-2m31-663.342264mNRRoorkee - 247667, Uttarakhand
9SRESaharanpur Junction (6)X15:35-16:05-30m41-628.646276mNRSaharanpur, Uttar Pradesh
10DBDDeoband (2)  16:50-16:52-2m21-594.451258mNRSaharanpur, Uttar Pradesh
11MOZMuzaffarnagar (3)X  17:20-17:22-2m21-570.467247mNRMuzaffarNagar, Uttar Pradesh
12KATKhatauli (2)  17:42-17:44-2m11-548.273239mNRKhatauli, Uttar Pradesh
13MUTMeerut Cantt. (2)  18:08-18:10-2m11-519.210230mNRMeerut, Uttar Pradesh
14MTCMeerut City Junction (6)X18:35-19:20-45m41-514.883229mNRMeerut, Uttar Pradesh
15MDNRModinagar (2)X  19:34-19:36-2m21-495.467221mNRGhaziabad, Uttar Pradesh
16MUDMuradnagar (2)  19:45-19:47-2m21-485.247220mNRGhaziabad, Uttar Pradesh
17GZNNew Ghaziabad (2)X  20:02-20:04-2m21-473.514213mNRGhaziabad, Uttar Pradesh
18GZBGhaziabad Junction (6)X  20:30-20:32-2m41-467.645217mNRGhaziabad, Uttar Pradesh
19SBBSahibabad Junction (5)X  20:41-20:43-2m--1-460.930209mNRGhaziabad, Uttar Pradesh
20NZMDelhi Hazrat Nizamuddin (7)O21:15-21:55-40m11-444.925209mNRNizamuddin East/Sarai KaleKhan Bus Terminal, Delhi NCT
21TKDTuglakabad (4)XO  22:18-22:20-2m--1-435.228213mNRNear Tughlakabad Metro Station, Delhi NCT
22FDBFaridabad (4)  22:44-22:46-2m31-424.140206mNRold Faridabad, Haryana
23BVHBallabgarh (5)O  22:58-23:00-2m--1-416.035203mNRFaridabad, Haryana
24PWLPalwal (8)X  23:36-23:38-2m--1-394.885200mNRPalwal, Haryana
25KSVKosi Kalan (3)O  00:08-00:10-2m22-352.429189mNCRKosi Kalan, Uttar Pradesh
26MTJMathura Junction (10)X  01:35-01:45-10m32-310.980179mNCRMathura, Uttar Pradesh
27BTEBharatpur Junction (5)  02:10-02:15-5m--2-277.484174mWCRBharatpur, Rajasthan
28BXNBayana Junction (3)XO  02:45-02:47-2m--2-235.474198mWCRBayana, Rajasthan
29FSPFateh SinghpuraO  03:03-03:05-2m--2-215.779223mWCRState Highway 1, Rajasthan
30HANHindaun City (2)  03:15-03:17-2m--2-202.568230mWCRKarauli, Rajasthan
31SMBJShri Mahabirji (3)O  03:26-03:28-2m--2-192.349240mWCRKarauli, Rajasthan
32GGCGangapur City (3)  04:10-04:20-10m--2-158.264270mWCRGangapur, Rajasthan
33NNWNarayanpur Tatwara (2)X  04:36-04:38-2m--2-141.384256mWCRSawai Madhopur, Rajasthan
34MLZMalarnaX  04:50-04:52-2m--2-124.565236mWCRSawai Madhopur, Rajasthan
35SWMSawai Madhopur Junction (4)XO  05:20-05:25-5m--2-94.395266mWCRSawai Madhopur, Rajasthan
36IDGIndargarh Sumerganj Mandi (2)X  05:48-05:50-2m--2-58.182247mWCRIndargarh, Rajasthan
37LKELakheri (3)  05:58-06:00-2m--2-47.174228mWCRBundi, Rajasthan
38KPTN»Keshorai Patan»X  06:38-06:40-2m--20.060243mWCRSH 33, Rajasthan
39GQLGurla  06:48-06:50-2m--28.08251mWCRSH 33, Rajasthan
40KOTAKota Junction (5)X07:30-07:50-20m2213.451256mWCRKota, Rajasthan
41DKNTDakaniya Talav (2)  08:01-08:03-2m2222.785278mWCRKota, Rajasthan
42DARADaraX  08:30-08:32-2m--260.855354mWCRDara, Rajasthan
43MKXMorak (2)X  08:48-08:50-2m--275.642337mWCRMorak, Rajasthan
44RMARamganj Mandi Junction (3)  09:03-09:05-2m--284.657358mWCRRamganj Mandi, Rajasthan
45JHWJhalawar Road (3)  09:18-09:20-2m--297.055361mWCRJhalawar City, Rajasthan
46BWMBhawani Mandi (3)X  09:38-09:40-2m--2113.576384mWCRBhawani Mandi, Madhya Pradesh
47GOHGaroth (2)X  09:58-10:00-2m12136.126441mWCRMadhya Pradesh 458880, Madhya Pradesh
48SGZShamgarh (3)X  10:25-10:30-5m--2147.067463mWCRMandsaur, Madhya Pradesh
49SVASuwasra (2)  10:42-10:44-2m--2160.466450mWCRSuwasra, Madhya Pradesh
50CMUChau Mahla (3)  10:58-11:00-2m12175.835426mWCRJhalawar, Rajasthan
51THURThuriaX  11:24-11:26-2m--2189.921430mWCRMDR 45, Madhya Pradesh
52VMAVikramgarh Alot (2)X  11:48-11:50-2m12197.661443mWCRKota Division, Madhya Pradesh
53LNRLuni Richha  12:03-12:05-2m--2210.828471mWCRAlote, Madhya Pradesh
54MEPMahidpur Road  12:28-12:30-2m--2221.529493mWCRGogapur, Madhya Pradesh
55NADNagda Junction (4)  13:05-13:15-10m--2238.575468mWRNagda, Madhya Pradesh
56KUHKhachrod (2)  13:26-13:28-2m--2252.357497mWRUjjain, Madhya Pradesh
57RNHRunkheraX  13:39-13:41-2m--2262.863478mWRUjjain, Madhya Pradesh
58BODBangrodX  13:48-13:50-2m--2270.224484mWRRatlam, Madhya Pradesh
59RTMRatlam Junction (7)X  14:15-14:35-20m42280.077495mWRRatlam, Madhya Pradesh
60RTIRaoti (2)  14:56-14:58-2m--2306.971409mWRState Highway 39A, Madhya Pradesh
61BOGBhairongarh (2)  15:08-15:10-2m--2318.851374mWRBhairongarh Railway Station, Madhya Pradesh
62BMIBamnia (2)  15:17-15:19-2m--2324.742392mWRBamnia, Madhya Pradesh
63AGRAmargarh (2)  15:25-15:27-2m--2328.957410mWRSH 39A, Madhya Pradesh
64PCNPanch Pipila (2)  15:37-15:39-2m--2338.384369mWRSH 39A, Madhya Pradesh
65THDRThandla Road (2)  15:49-15:51-2m--2352.360317mWRJhabua, Madhya Pradesh
66MGNMeghnagar (3)  15:59-16:01-2m--2360.373317mWRJhabua, Madhya Pradesh
67ANASAnas (2)  16:13-16:15-2m--2374.879288mWRMadhya Pradesh 389154 ?, Madhya Pradesh
68BIOBordi (2)  16:21-16:23-2m--2382.853289mWRNational Highway 59, Gujarat
69DHDDahod (3)  16:35-16:40-5m--2393.476313mWRDahod, Gujarat
70LMKLimkheda  17:06-17:08-2m--2426.368205mWRLimkheda, Gujarat
71PPDPiplod Junction  17:15-17:17-2m--2434.379209mWRPiplod, Gujarat
72SATSant Road (2)X  17:26-17:28-2m22446.120169mWROrwara, Gujarat
73GDAGodhra Junction (3)X  18:30-18:35-5m102466.565122mWRGodhra, Gujarat
74KRSAKharsaliya (2)  18:45-18:47-2m--2477.385107mWRPanchmahal, Gujarat
75DRLDerolX  18:56-18:58-2m12490.16881mWRKalol, Gujarat
76CPNChampaner Road JunctionX  19:09-19:11-2m--2502.67578mWRPanchmahal, Gujarat
77SMLASamlaya Junction (3)X  19:20-19:22-2m--2513.84867mWRVadodara, Gujarat
78BRCVadodara Junction (7)  19:55-20:05-10m32540.48936mWRVadodara 390005, Gujarat
79MYGMiyagam Karjan (2)  20:25-20:27-2m--2570.27229mWRKarjan, Gujarat
80BHBharuch Junction (5)  21:01-21:03-2m42610.96219mWRBharuch, Gujarat
81AKVAnkleshwar Junction (4)X  21:12-21:14-2m22620.27419mWRAnkleshwar, Gujarat
82KSBKosamba Junction (3)X21:29-21:31-2m--2638.83230mWRKosamba, Gujarat
83STSurat (4)X  22:30-22:38-8m22670.27119mWRSurat 395001, Gujarat
84NVSNavsari (3)  23:03-23:05-2m--2699.87914mWRNavsari, Gujarat
85BIMBilimora Junction (4)X  23:21-23:23-2m--2720.93611mWRBilimora, Gujarat
86BLValsad (3)  23:53-23:55-2m32738.93815mWRValsad, Gujarat
87VAPIVapi (3)X  00:36-00:38-2m--3765.15727mWRVapi, Gujarat
88PLGPalghar (3)  02:04-02:06-2m--3846.63719mWRPalghar, Maharashtra
89VRVirar (8)  02:56-02:58-2m--3877.8486mWRThane, Maharashtra
90BVIMumbai Borivali (8)  03:30-03:32-2m53903.62319mWRMumbai - 400092, Maharashtra
91BDTS•Mumbai Bandra Terminus (5)•  04:20--13922.3-4mWRMumbai 400050, Maharashtra
Scroll to Top
Scroll to Bottom